Flag for Australia Weather past 2 weeks in Launceston, Tasmania, Australia

Now
66 °F

Sunny.


Feels Like: 66 °F
Forecast: 53 / 69 °F
Wind: 20 mph from Northwest

Location: Launceston Airport

Current Time: Mar 2, 2015 at 12:23:02 PM

Latest Report: Mar 2, 2015 at 12:00 PM


Visibility: N/A

Pressure: 30.04 "Hg

Humidity: 52%

Dew point: 48 °F

Location of LauncestonLocation

Historic Weather in Launceston — Graph

°F

Launceston temperature yesterday

Maximum temperature yesterday: 72 °F (at 5:00 PM)
Minimum temperature yesterday: 48 °F (at 6:00 AM)
Average temperature yesterday: 60 °F

Past Weeks' High & Low Weather Summary

 TemperatureHumidityPressure
High90 °F (Feb 22, 3:00 PM)100% (Feb 18, 4:00 AM)30.24 "Hg (Feb 18, 4:00 AM)
Low46 °F (Feb 28, 7:00 AM)25% (Feb 24, 4:00 PM)29.53 "Hg (Feb 28, 6:30 PM)
Average65 °F67%29.95 "Hg
* Reported Feb 15 11:00 AM — Mar 2 11:00 AM, Launceston, Weather by CustomWeather, © 2015

Note: Actual official high and low records may vary slightly from our data, if they occured in-between our weather recording intervals... More about our weather records

Advertising

Launceston weather history for previous 24 hours

 ConditionsComfort  
Time TempWeatherWind HumidityBarometerVisibility
11:00 AM
Mon, Mar 2
63 °FScattered clouds.13 mph59%30.07 "HgN/A
10:30 AM61 °FScattered clouds.5 mph55%30.07 "HgN/A
10:00 AM57 °FPartly sunny.5 mph59%30.07 "HgN/A
9:00 AM55 °FScattered clouds.7 mph59%30.07 "HgN/A
8:30 AM52 °FSunny.8 mph62%30.07 "HgN/A
8:00 AM48 °FScattered clouds.8 mph66%30.07 "HgN/A
7:30 AM48 °FScattered clouds.5 mph66%30.07 "HgN/A
7:00 AM46 °FScattered clouds.8 mph71%30.07 "HgN/A
6:30 AM46 °FClear.8 mph76%30.04 "HgN/A
6:00 AM46 °FClear.6 mph71%30.04 "HgN/A
5:00 AM48 °FPartly cloudy.6 mph66%30.04 "HgN/A
4:30 AM52 °FOvercast.6 mph58%30.04 "HgN/A
4:00 AM52 °FMostly cloudy.9 mph58%30.04 "HgN/A
3:30 AM52 °FOvercast.9 mph58%30.04 "HgN/A
3:00 AM52 °FMostly cloudy.9 mph58%30.04 "HgN/A
2:00 AM50 °FPartly cloudy.10 mph62%30.04 "HgN/A
1:00 AM52 °FPartly cloudy.10 mph62%30.04 "HgN/A
12:30 AM50 °FPassing clouds.10 mph62%30.01 "HgN/A
12:00 AM52 °FPassing clouds.10 mph62%30.01 "HgN/A
11:00 PM
Sun, Mar 1
52 °FClear.12 mph62%30.01 "HgN/A
10:00 PM54 °FClear.10 mph58%30.01 "HgN/A
9:30 PM54 °FClear.9 mph58%29.98 "HgN/A
9:00 PM55 °FClear.10 mph55%29.98 "HgN/A
8:30 PM57 °FClear.9 mph51%29.95 "HgN/A
8:00 PM61 °FPassing clouds.13 mph42%29.95 "HgN/A
7:30 PM63 °FSunny.13 mph39%29.92 "HgN/A
7:00 PM64 °FSunny.15 mph37%29.92 "HgN/A
6:00 PM68 °FSunny.12 mph33%29.89 "HgN/A
5:30 PM70 °FScattered clouds.14 mph29%29.86 "HgN/A
5:00 PM72 °FScattered clouds.13 mph29%29.86 "HgN/A
4:30 PM70 °FScattered clouds.12 mph33%29.83 "HgN/A
4:00 PM70 °FPartly sunny.10 mph35%29.83 "HgN/A
3:30 PM70 °FMore clouds than sun.17 mph38%29.83 "HgN/A
3:00 PM68 °FPartly sunny.15 mph30%29.83 "HgN/A
2:00 PM68 °FScattered clouds.12 mph33%29.80 "HgN/A
1:30 PM70 °FScattered clouds.10 mph33%29.80 "HgN/A
1:00 PM66 °FScattered clouds.12 mph43%29.80 "HgN/A
12:00 PM64 °FBroken clouds.8 mph43%29.80 "HgN/A
Weather by CustomWeather, © 2015

See weather overviewHow to use our weather pages